{"data":{"norad_id":67001,"epoch":"2026-05-24T10:58:00.392736Z","epoch_age_seconds":122215,"freshness":"FRESH","line1":"1 67001U 25292J   26144.45694899  .00003502  00000+0  24193-3 0  9996","line2":"2 67001  97.6347 220.4746 0016924  78.7584 281.5544 15.06293873 24872","mean_motion":15.06293873,"eccentricity":0.0016924,"inclination_deg":97.6347,"raan_deg":220.4746,"arg_perigee_deg":78.7584,"mean_anomaly_deg":281.5544,"bstar":0.00024193,"rev_number":2487,"period_min":95.598875213642,"perigee_km":535.81583059677,"apogee_km":559.25785141381,"semimajor_km":6925.6738410053,"source":"CELESTRAK","updated_at":"2026-05-25T13:38:06.639873Z"}}